Location: Uhersky Brod
(49.0330°N, 17.6500°E)
Time: 12:45:43
(UTC+02:00)

ISS - Pass Details

Date: 21 May 2025
Orbit: 415 x 418 km, 51.6° (Epoch: 19 June)

Event Time Altitude Azimuth Distance (km) Brightness Sun altitude
Rises 22:11:12 0° 290° (WNW) 2,362 1.1 -12.5°
Reaches altitude 10° 22:13:19 10° 286° (WNW) 1,495 -0.1 -12.7°
Maximum altitude 22:16:37 57° 207° (SSW) 495 -3.6 -13.0°
Enters shadow 22:18:18 25° 137° (SE) 877 -2.8 -13.2°
